Location: Borz?cin
(51.1714°N, 19.6030°E)
Time: 18:11:13
(UTC+00:00)

ISS - Pass Details

Date: 19 May 2025
Orbit: 415 x 417 km, 51.6° (Epoch: 21 June)

Event Time Altitude Azimuth Distance (km) Brightness Sun altitude
Rises 20:11:46 0° 283° (WNW) 2,362 0.9 -12.0°
Reaches altitude 10° 20:13:52 10° 280° (W) 1,496 -0.3 -12.2°
Maximum altitude 20:17:12 62° 199° (SSW) 472 -3.7 -12.4°
Enters shadow 20:19:15 21° 123° (ESE) 998 -2.4 -12.6°
